Вернуться в каталог

DELTA 1 DEB

АктивенLEO
NORAD 7174·DEBRIS·🇺🇸 United States

Запущен Nov 6, 1973 с Vandenberg Space Force Base

Loading…

Ближайшие Пролёты (ближайшие 24 часа)

TLE

УстаревающийSource: Space-Track

Эпоха: Sep 12, 2026, 08:58 UTC

1 07174U 73086EL  26255.37371707 -.00000384  00000-0 -33333-2 0  9992
2 07174 102.0872 301.5954 0296584   5.9406   6.4617 12.08900441341962

Отслеживайте DELTA 1 DEB в реальном времени с AllMySat

Download on the App Store